Time,TemperatureF,DewpointF,PressureIn,WindDirection,WindDirectionDegrees,WindSpeedMPH,WindSpeedGustMPH,Humidity,HourlyPrecipIn,Conditions,Clouds,dailyrainin,SolarRadiationWatts/m^2,SoftwareType,DateUTC
2013-03-13 00:00:00,35.6,28.1,30.00,SSW,203,5.0,7.0,74,0.00,,,0.00,0,Wunderground v.1.15,2013-03-13 04:00:00,
2013-03-13 00:01:00,35.5,27.7,30.00,SSW,211,5.0,8.0,73,0.00,,,0.00,0,Wunderground v.1.15,2013-03-13 04:01:00,
2013-03-13 00:02:00,35.6,27.8,30.00,SSW,209,5.0,8.0,73,0.00,,,0.00,0,Wunderground v.1.15,2013-03-13 04:02:00,
2013-03-13 00:04:00,35.6,27.8,30.01,SW,224,5.0,8.0,73,0.00,,,0.00,0,Wunderground v.1.15,2013-03-13 04:04:00,
2013-03-13 00:10:00,35.6,28.1,30.00,South,179,5.0,11.0,74,0.00,,,0.00,0,Wunderground v.1.15,2013-03-13 04:10:00,
2013-03-13 00:16:00,35.6,27.5,30.00,West,269,6.0,11.0,72,0.00,,,0.00,0,Wunderground v.1.15,2013-03-13 04:16:00,
2013-03-13 00:21:00,35.6,27.8,30.00,SW,228,5.0,6.0,73,0.00,,,0.00,0,Wunderground v.1.15,2013-03-13 04:21:00,
2013-03-13 00:27:00,35.6,27.8,30.00,SW,231,2.0,6.0,73,0.00,,,0.00,0,Wunderground v.1.15,2013-03-13 04:27:00,
2013-03-13 00:33:00,35.6,27.1,30.00,NNE,17,2.0,5.0,71,0.00,,,0.00,0,Wunderground v.1.15,2013-03-13 04:33:00,
2013-03-13 00:38:00,35.6,28.5,30.00,SSE,167,4.0,5.0,75,0.00,,,0.00,0,Wunderground v.1.15,2013-03-13 04:38:00,
2013-03-13 00:44:00,35.5,28.4,30.00,NNW,338,4.0,5.0,75,0.00,,,0.00,0,Wunderground v.1.15,2013-03-13 04:44:00,
2013-03-13 00:49:00,35.4,27.6,30.00,West,265,4.0,5.0,73,0.00,,,0.00,0,Wunderground v.1.15,2013-03-13 04:49:00,
2013-03-13 00:54:00,35.4,27.9,29.99,WSW,244,5.0,6.0,74,0.00,,,0.00,0,Wunderground v.1.15,2013-03-13 04:54:00,
2013-03-13 01:00:00,35.3,27.2,29.99,North,360,5.0,7.0,72,0.00,,,0.00,0,Wunderground v.1.15,2013-03-13 05:00:00,
2013-03-13 01:06:00,35.1,27.6,29.99,SSE,160,4.0,7.0,74,0.00,,,0.00,0,Wunderground v.1.15,2013-03-13 05:06:00,
2013-03-13 01:11:00,34.9,26.8,29.98,SSE,157,4.0,5.0,72,0.00,,,0.00,0,Wunderground v.1.15,2013-03-13 05:11:00,
2013-03-13 01:17:00,34.5,26.7,29.98,ENE,62,4.0,6.0,73,0.00,,,0.00,0,Wunderground v.1.15,2013-03-13 05:17:00,
2013-03-13 01:22:00,34.1,26.7,29.98,SE,133,3.0,3.0,74,0.00,,,0.00,0,Wunderground v.1.15,2013-03-13 05:22:00,
2013-03-13 01:27:00,33.8,26.1,29.98,SE,126,2.0,7.0,73,0.00,,,0.00,0,Wunderground v.1.15,2013-03-13 05:27:00,
2013-03-13 01:33:00,33.6,25.5,29.98,South,182,4.0,4.0,72,0.00,,,0.00,0,Wunderground v.1.15,2013-03-13 05:33:00,
2013-03-13 01:39:00,33.2,26.5,29.97,SW,218,3.0,6.0,76,0.00,,,0.00,0,Wunderground v.1.15,2013-03-13 05:39:00,
2013-03-13 01:44:00,32.9,25.8,29.98,SSW,204,4.0,7.0,75,0.00,,,0.00,0,Wunderground v.1.15,2013-03-13 05:44:00,
2013-03-13 01:49:00,32.6,25.6,29.98,SSW,198,5.0,9.0,75,0.00,,,0.00,0,Wunderground v.1.15,2013-03-13 05:49:00,
2013-03-13 01:55:00,32.7,26.3,29.97,South,174,4.0,6.0,77,0.00,,,0.00,0,Wunderground v.1.15,2013-03-13 05:55:00,
2013-03-13 02:00:00,32.3,25.9,29.98,South,189,4.0,5.0,77,0.00,,,0.00,0,Wunderground v.1.15,2013-03-13 06:00:00,
2013-03-13 02:06:00,32.1,25.7,29.97,South,180,4.0,6.0,77,0.00,,,0.00,0,Wunderground v.1.15,2013-03-13 06:06:00,
2013-03-13 02:11:00,32.0,25.9,29.97,SW,234,5.0,5.0,78,0.00,,,0.00,0,Wunderground v.1.15,2013-03-13 06:11:00,
2013-03-13 02:17:00,32.1,26.3,29.97,SW,215,4.0,8.0,79,0.00,,,0.00,0,Wunderground v.1.15,2013-03-13 06:17:00,
2013-03-13 02:22:00,32.0,26.2,29.97,WSW,256,2.0,5.0,79,0.00,,,0.00,0,Wunderground v.1.15,2013-03-13 06:22:00,
2013-03-13 02:27:00,31.8,26.0,29.97,WNW,287,4.0,6.0,79,0.00,,,0.00,0,Wunderground v.1.15,2013-03-13 06:27:00,
2013-03-13 02:33:00,31.8,26.3,29.97,SSW,206,4.0,5.0,80,0.00,,,0.00,0,Wunderground v.1.15,2013-03-13 06:33:00,
2013-03-13 02:38:00,31.7,26.2,29.97,North,360,3.0,5.0,80,0.00,,,0.00,0,Wunderground v.1.15,2013-03-13 06:38:00,
2013-03-13 02:44:00,31.6,26.1,29.96,SW,216,3.0,7.0,80,0.00,,,0.00,0,Wunderground v.1.15,2013-03-13 06:44:00,
2013-03-13 02:50:00,31.7,26.5,29.96,SW,227,5.0,5.0,81,0.00,,,0.00,0,Wunderground v.1.15,2013-03-13 06:50:00,
2013-03-13 02:55:00,31.6,26.7,29.96,South,184,5.0,6.0,82,0.00,,,0.00,0,Wunderground v.1.15,2013-03-13 06:55:00,
2013-03-13 03:00:00,31.4,26.5,29.97,SSW,211,4.0,4.0,82,0.00,,,0.00,0,Wunderground v.1.15,2013-03-13 07:00:00,
2013-03-13 03:06:00,31.0,26.4,29.96,WSW,252,3.0,4.0,83,0.00,,,0.00,0,Wunderground v.1.15,2013-03-13 07:06:00,
2013-03-13 03:12:00,30.7,26.1,29.96,WSW,253,1.0,2.0,83,0.00,,,0.00,0,Wunderground v.1.15,2013-03-13 07:12:00,
2013-03-13 03:17:00,30.3,26.3,29.96,WSW,254,0.0,2.0,85,0.00,,,0.00,0,Wunderground v.1.15,2013-03-13 07:17:00,
2013-03-13 03:23:00,29.8,26.1,29.96,WSW,252,0.0,3.0,86,0.00,,,0.00,0,Wunderground v.1.15,2013-03-13 07:23:00,
2013-03-13 03:28:00,29.5,26.1,29.95,WSW,254,1.0,3.0,87,0.00,,,0.00,0,Wunderground v.1.15,2013-03-13 07:28:00,
2013-03-13 03:34:00,29.2,26.1,29.95,WSW,254,1.0,2.0,88,0.00,,,0.00,0,Wunderground v.1.15,2013-03-13 07:34:00,
2013-03-13 03:40:00,28.9,26.1,29.95,NW,317,1.0,2.0,89,0.00,,,0.00,0,Wunderground v.1.15,2013-03-13 07:40:00,
2013-03-13 03:46:00,28.9,26.3,29.95,NW,317,1.0,2.0,90,0.00,,,0.00,0,Wunderground v.1.15,2013-03-13 07:46:00,
2013-03-13 03:52:00,29.0,26.4,29.95,NW,315,0.0,0.0,90,0.00,,,0.00,0,Wunderground v.1.15,2013-03-13 07:52:00,
2013-03-13 03:58:00,29.1,26.5,29.94,North,360,0.0,0.0,90,0.00,,,0.00,0,Wunderground v.1.15,2013-03-13 07:58:00,
2013-03-13 04:03:00,29.2,26.6,29.94,NW,316,0.0,0.0,90,0.00,,,0.00,0,Wunderground v.1.15,2013-03-13 08:03:00,
2013-03-13 04:08:00,29.3,27.0,29.94,NW,318,1.0,4.0,91,0.00,,,0.00,0,Wunderground v.1.15,2013-03-13 08:08:00,
2013-03-13 04:14:00,29.5,27.2,29.93,NW,317,2.0,2.0,91,0.00,,,0.00,0,Wunderground v.1.15,2013-03-13 08:14:00,
2013-03-13 04:20:00,29.7,27.4,29.93,NW,312,1.0,1.0,91,0.00,,,0.00,0,Wunderground v.1.15,2013-03-13 08:20:00,
2013-03-13 04:25:00,29.9,27.6,29.94,NW,314,0.0,1.0,91,0.00,,,0.00,0,Wunderground v.1.15,2013-03-13 08:25:00,
2013-03-13 04:31:00,30.1,27.8,29.94,NW,315,0.0,0.0,91,0.00,,,0.00,0,Wunderground v.1.15,2013-03-13 08:31:00,
2013-03-13 04:37:00,30.3,28.0,29.94,NW,316,0.0,2.0,91,0.00,,,0.00,0,Wunderground v.1.15,2013-03-13 08:37:00,
2013-03-13 04:42:00,30.4,27.8,29.94,North,360,1.0,3.0,90,0.00,,,0.00,0,Wunderground v.1.15,2013-03-13 08:42:00,
2013-03-13 04:48:00,30.5,28.2,29.94,North,9,1.0,3.0,91,0.00,,,0.00,0,Wunderground v.1.15,2013-03-13 08:48:00,
2013-03-13 04:53:00,30.4,27.8,29.94,North,9,0.0,1.0,90,0.00,,,0.00,0,Wunderground v.1.15,2013-03-13 08:53:00,
2013-03-13 04:59:00,30.0,27.7,29.94,NNE,15,1.0,2.0,91,0.00,,,0.00,0,Wunderground v.1.15,2013-03-13 08:59:00,
2013-03-13 05:04:00,29.9,27.9,29.94,NNE,16,1.0,1.0,92,0.00,,,0.00,0,Wunderground v.1.15,2013-03-13 09:04:00,
2013-03-13 05:10:00,29.8,27.8,29.94,NNE,17,1.0,1.0,92,0.00,,,0.00,0,Wunderground v.1.15,2013-03-13 09:10:00,
2013-03-13 05:16:00,29.5,27.7,29.94,NNE,17,2.0,4.0,93,0.00,,,0.00,0,Wunderground v.1.15,2013-03-13 09:16:00,
2013-03-13 05:21:00,29.3,27.8,29.94,NNE,17,3.0,3.0,94,0.00,,,0.00,0,Wunderground v.1.15,2013-03-13 09:21:00,
2013-03-13 05:27:00,29.4,28.1,29.94,NNE,17,2.0,3.0,95,0.00,,,0.00,0,Wunderground v.1.15,2013-03-13 09:27:00,
2013-03-13 05:32:00,29.4,28.1,29.94,NNE,17,0.0,1.0,95,0.00,,,0.00,0,Wunderground v.1.15,2013-03-13 09:32:00,
2013-03-13 05:38:00,29.3,28.3,29.94,NNE,17,0.0,1.0,96,0.00,,,0.00,0,Wunderground v.1.15,2013-03-13 09:38:00,
2013-03-13 05:43:00,29.4,28.4,29.94,NNE,17,0.0,0.0,96,0.00,,,0.00,0,Wunderground v.1.15,2013-03-13 09:43:00,
2013-03-13 05:49:00,29.6,28.6,29.94,NNE,17,0.0,0.0,96,0.00,,,0.00,0,Wunderground v.1.15,2013-03-13 09:49:00,
2013-03-13 05:54:00,29.7,28.7,29.95,NNE,14,0.0,4.0,96,0.00,,,0.00,0,Wunderground v.1.15,2013-03-13 09:54:00,
2013-03-13 05:59:00,29.9,28.9,29.95,NNW,342,2.0,4.0,96,0.00,,,0.00,0,Wunderground v.1.15,2013-03-13 09:59:00,
2013-03-13 06:05:00,30.0,29.0,29.95,NNW,344,1.0,2.0,96,0.00,,,0.00,0,Wunderground v.1.15,2013-03-13 10:05:00,
2013-03-13 06:11:00,29.8,28.5,29.95,NNW,341,0.0,0.0,95,0.00,,,0.00,0,Wunderground v.1.15,2013-03-13 10:11:00,
2013-03-13 06:16:00,29.7,28.7,29.95,NNW,342,0.0,0.0,96,0.00,,,0.00,0,Wunderground v.1.15,2013-03-13 10:16:00,
2013-03-13 06:22:00,29.6,28.6,29.95,NNW,342,0.0,0.0,96,0.00,,,0.00,0,Wunderground v.1.15,2013-03-13 10:22:00,
2013-03-13 06:27:00,29.5,28.8,29.95,NNW,342,1.0,2.0,97,0.00,,,0.00,0,Wunderground v.1.15,2013-03-13 10:27:00,
2013-03-13 06:33:00,29.5,28.8,29.95,NNW,341,1.0,1.0,97,0.00,,,0.00,0,Wunderground v.1.15,2013-03-13 10:33:00,
2013-03-13 06:38:00,29.5,28.8,29.95,NNW,342,0.0,1.0,97,0.00,,,0.00,0,Wunderground v.1.15,2013-03-13 10:38:00,
2013-03-13 06:44:00,29.5,28.8,29.95,NNW,344,1.0,3.0,97,0.00,,,0.00,0,Wunderground v.1.15,2013-03-13 10:44:00,
2013-03-13 06:49:00,29.6,28.9,29.95,NNW,344,1.0,3.0,97,0.00,,,0.00,0,Wunderground v.1.15,2013-03-13 10:49:00,
2013-03-13 06:55:00,29.5,28.8,29.95,NNW,344,0.0,1.0,97,0.00,,,0.00,0,Wunderground v.1.15,2013-03-13 10:55:00,
2013-03-13 07:00:00,29.4,28.7,29.95,WNW,300,1.0,1.0,97,0.00,,,0.00,0,Wunderground v.1.15,2013-03-13 11:00:00,
2013-03-13 07:06:00,29.2,28.5,29.95,WNW,301,1.0,1.0,97,0.00,,,0.00,0,Wunderground v.1.15,2013-03-13 11:06:00,
2013-03-13 07:11:00,29.2,28.5,29.95,WNW,303,0.0,2.0,97,0.00,,,0.00,0,Wunderground v.1.15,2013-03-13 11:11:00,
2013-03-13 07:17:00,29.0,28.3,29.95,WNW,301,0.0,2.0,97,0.00,,,0.00,0,Wunderground v.1.15,2013-03-13 11:17:00,
2013-03-13 07:23:00,28.7,27.7,29.95,WNW,302,0.0,1.0,96,0.00,,,0.00,0,Wunderground v.1.15,2013-03-13 11:23:00,
2013-03-13 07:28:00,28.3,27.6,29.95,SW,214,1.0,5.0,97,0.00,,,0.00,5,Wunderground v.1.15,2013-03-13 11:28:00,
2013-03-13 07:34:00,28.2,27.7,29.95,SW,233,2.0,2.0,98,0.00,,,0.00,12,Wunderground v.1.15,2013-03-13 11:34:00,
2013-03-13 07:39:00,28.3,27.8,29.94,WSW,237,1.0,2.0,98,0.00,,,0.00,18,Wunderground v.1.15,2013-03-13 11:39:00,
2013-03-13 07:45:00,28.3,28.1,29.94,WSW,240,0.0,3.0,99,0.00,,,0.00,18,Wunderground v.1.15,2013-03-13 11:45:00,
2013-03-13 07:52:00,28.6,28.6,29.94,North,360,1.0,3.0,100,0.00,,,0.00,23,Wunderground v.1.15,2013-03-13 11:52:00,
2013-03-13 07:58:00,29.0,29.0,29.95,North,360,2.0,3.0,100,0.00,,,0.00,28,Wunderground v.1.15,2013-03-13 11:58:00,
2013-03-13 08:04:00,29.4,29.4,29.94,North,360,2.0,4.0,100,0.00,,,0.00,63,Wunderground v.1.15,2013-03-13 12:04:00,
2013-03-13 08:10:00,29.8,29.8,29.94,SW,220,2.0,4.0,100,0.00,,,0.00,32,Wunderground v.1.15,2013-03-13 12:10:00,
2013-03-13 08:16:00,30.2,30.0,29.95,South,184,4.0,5.0,99,0.00,,,0.00,14,Wunderground v.1.15,2013-03-13 12:16:00,
2013-03-13 08:22:00,30.7,30.2,29.95,South,185,4.0,5.0,98,0.00,,,0.00,19,Wunderground v.1.15,2013-03-13 12:22:00,
2013-03-13 08:27:00,31.0,30.5,29.95,WSW,241,3.0,5.0,98,0.00,,,0.00,56,Wunderground v.1.15,2013-03-13 12:27:00,
2013-03-13 08:32:00,31.4,30.9,29.95,WSW,257,3.0,3.0,98,0.00,,,0.00,185,Wunderground v.1.15,2013-03-13 12:32:00,
2013-03-13 08:38:00,31.8,31.3,29.95,West,260,2.0,3.0,98,0.00,,,0.00,156,Wunderground v.1.15,2013-03-13 12:38:00,
2013-03-13 08:43:00,32.1,31.6,29.95,North,360,0.0,1.0,98,0.00,,,0.00,192,Wunderground v.1.15,2013-03-13 12:43:00,
2013-03-13 08:49:00,32.4,31.6,29.95,WSW,255,1.0,2.0,97,0.00,,,0.00,146,Wunderground v.1.15,2013-03-13 12:49:00,
2013-03-13 08:55:00,32.7,31.7,29.95,South,186,1.0,2.0,96,0.00,,,0.00,237,Wunderground v.1.15,2013-03-13 12:55:00,
2013-03-13 09:00:00,33.1,32.1,29.95,South,185,2.0,4.0,96,0.00,,,0.00,306,Wunderground v.1.15,2013-03-13 13:00:00,
2013-03-13 09:06:00,33.6,31.8,29.95,West,260,4.0,10.0,93,0.00,,,0.00,388,Wunderground v.1.15,2013-03-13 13:06:00,
2013-03-13 09:12:00,34.3,30.8,29.96,West,261,10.0,17.0,87,0.00,,,0.00,211,Wunderground v.1.15,2013-03-13 13:12:00,
2013-03-13 09:17:00,33.9,31.0,29.96,WSW,246,11.0,17.0,89,0.00,,,0.00,63,Wunderground v.1.15,2013-03-13 13:17:00,
2013-03-13 09:23:00,33.2,30.6,29.96,North,360,9.0,16.0,90,0.00,,,0.00,202,Wunderground v.1.15,2013-03-13 13:23:00,
2013-03-13 09:28:00,32.8,30.5,29.95,WNW,298,10.0,17.0,91,0.00,,,0.01,306,Wunderground v.1.15,2013-03-13 13:28:00,
2013-03-13 09:33:00,32.8,29.9,29.96,WNW,292,12.0,21.0,89,0.00,,,0.01,388,Wunderground v.1.15,2013-03-13 13:33:00,
2013-03-13 09:39:00,32.6,29.4,29.97,West,260,11.0,21.0,88,0.00,,,0.01,142,Wunderground v.1.15,2013-03-13 13:39:00,
2013-03-13 09:44:00,32.5,28.5,29.96,WNW,288,9.0,21.0,85,0.00,,,0.01,67,Wunderground v.1.15,2013-03-13 13:44:00,
2013-03-13 09:50:00,32.6,28.6,29.96,North,360,8.0,8.0,85,0.00,,,0.01,81,Wunderground v.1.15,2013-03-13 13:50:00,
2013-03-13 09:56:00,33.1,27.6,29.96,North,360,8.0,15.0,80,0.00,,,0.01,457,Wunderground v.1.15,2013-03-13 13:56:00,
2013-03-13 10:01:00,33.8,28.0,29.96,SW,228,11.0,13.0,79,0.00,,,0.01,478,Wunderground v.1.15,2013-03-13 14:01:00,
2013-03-13 10:06:00,34.3,27.8,29.96,NW,319,14.0,24.0,77,0.00,,,0.01,494,Wunderground v.1.15,2013-03-13 14:06:00,
2013-03-13 10:11:00,34.7,27.3,29.96,WSW,246,10.0,14.0,74,0.00,,,0.01,236,Wunderground v.1.15,2013-03-13 14:11:00,
2013-03-13 10:17:00,34.9,26.4,29.96,WSW,246,8.0,18.0,71,0.00,,,0.01,88,Wunderground v.1.15,2013-03-13 14:17:00,
2013-03-13 10:22:00,34.5,25.0,29.96,SW,225,10.0,10.0,68,0.00,,,0.01,271,Wunderground v.1.15,2013-03-13 14:22:00,
2013-03-13 10:28:00,34.5,25.4,29.95,WNW,293,10.0,15.0,69,0.00,,,0.01,128,Wunderground v.1.15,2013-03-13 14:28:00,
2013-03-13 10:33:00,34.8,25.3,29.95,SW,221,8.0,9.0,68,0.00,,,0.01,578,Wunderground v.1.15,2013-03-13 14:33:00,
2013-03-13 10:39:00,35.4,26.6,29.95,SSW,196,4.0,9.0,70,0.00,,,0.01,183,Wunderground v.1.15,2013-03-13 14:39:00,
2013-03-13 10:44:00,35.7,26.2,29.95,SSW,196,3.0,4.0,68,0.00,,,0.01,359,Wunderground v.1.15,2013-03-13 14:44:00,
2013-03-13 10:49:00,36.1,25.8,29.95,West,272,2.0,6.0,66,0.00,,,0.01,541,Wunderground v.1.15,2013-03-13 14:49:00,
2013-03-13 10:55:00,36.6,24.8,29.95,SSE,160,4.0,13.0,62,0.00,,,0.01,207,Wunderground v.1.15,2013-03-13 14:55:00,
2013-03-13 11:00:00,36.5,25.5,29.95,WSW,246,8.0,21.0,64,0.00,,,0.01,213,Wunderground v.1.15,2013-03-13 15:00:00,
2013-03-13 11:06:00,36.5,25.5,29.95,NNW,331,11.0,21.0,64,0.00,,,0.01,816,Wunderground v.1.15,2013-03-13 15:06:00,
2013-03-13 11:11:00,37.3,26.2,29.95,WSW,250,8.0,10.0,64,0.00,,,0.01,796,Wunderground v.1.15,2013-03-13 15:11:00,
2013-03-13 11:17:00,38.0,24.1,29.96,SW,227,9.0,21.0,57,0.00,,,0.01,740,Wunderground v.1.15,2013-03-13 15:17:00,
2013-03-13 11:22:00,37.9,23.6,29.96,SSW,196,11.0,21.0,56,0.00,,,0.01,193,Wunderground v.1.15,2013-03-13 15:22:00,
2013-03-13 11:28:00,37.9,25.2,29.96,West,279,11.0,24.0,60,0.00,,,0.01,837,Wunderground v.1.15,2013-03-13 15:28:00,
2013-03-13 11:33:00,37.7,24.2,29.96,North,360,13.0,20.0,58,0.00,,,0.01,666,Wunderground v.1.15,2013-03-13 15:33:00,
2013-03-13 11:39:00,37.9,25.2,29.95,North,360,12.0,20.0,60,0.00,,,0.01,545,Wunderground v.1.15,2013-03-13 15:39:00,
2013-03-13 11:45:00,37.9,26.0,29.96,West,271,11.0,16.0,62,0.00,,,0.01,278,Wunderground v.1.15,2013-03-13 15:45:00,
2013-03-13 11:51:00,37.5,25.7,29.96,West,267,13.0,13.0,62,0.00,,,0.01,253,Wunderground v.1.15,2013-03-13 15:51:00,
2013-03-13 11:56:00,37.0,24.8,29.96,WNW,286,11.0,18.0,61,0.00,,,0.01,325,Wunderground v.1.15,2013-03-13 15:56:00,
2013-03-13 12:02:00,36.5,24.7,29.96,WNW,284,9.0,10.0,62,0.00,,,0.01,343,Wunderground v.1.15,2013-03-13 16:02:00,
2013-03-13 12:08:00,36.2,24.8,29.96,West,275,8.0,14.0,63,0.00,,,0.01,292,Wunderground v.1.15,2013-03-13 16:08:00,
2013-03-13 12:14:00,36.2,24.8,29.96,North,360,6.0,12.0,63,0.00,,,0.01,294,Wunderground v.1.15,2013-03-13 16:14:00,
2013-03-13 12:19:00,36.2,25.6,29.96,WNW,298,6.0,12.0,65,0.00,,,0.01,257,Wunderground v.1.15,2013-03-13 16:19:00,
2013-03-13 12:25:00,36.2,25.9,29.96,West,269,6.0,9.0,66,0.00,,,0.01,229,Wunderground v.1.15,2013-03-13 16:25:00,
2013-03-13 12:30:00,36.3,24.9,29.96,WSW,258,6.0,7.0,63,0.00,,,0.01,253,Wunderground v.1.15,2013-03-13 16:30:00,
2013-03-13 12:36:00,36.7,25.7,29.96,WNW,303,9.0,16.0,64,0.00,,,0.01,338,Wunderground v.1.15,2013-03-13 16:36:00,
2013-03-13 12:41:00,37.7,26.2,29.96,West,274,11.0,12.0,63,0.00,,,0.01,773,Wunderground v.1.15,2013-03-13 16:41:00,
2013-03-13 12:47:00,38.2,26.3,29.96,West,269,9.0,12.0,62,0.00,,,0.01,884,Wunderground v.1.15,2013-03-13 16:47:00,
2013-03-13 12:52:00,39.1,27.9,29.96,North,360,7.0,11.0,64,0.00,,,0.01,1021,Wunderground v.1.15,2013-03-13 16:52:00,
2013-03-13 12:58:00,40.3,27.1,29.96,West,275,10.0,20.0,59,0.00,,,0.01,316,Wunderground v.1.15,2013-03-13 16:58:00,
2013-03-13 13:03:00,39.3,26.6,29.96,WNW,298,13.0,26.0,60,0.00,,,0.01,352,Wunderground v.1.15,2013-03-13 17:03:00,
2013-03-13 13:09:00,39.3,27.0,29.95,West,265,13.0,26.0,61,0.00,,,0.01,912,Wunderground v.1.15,2013-03-13 17:09:00,
2013-03-13 13:14:00,39.4,26.7,29.95,WSW,256,9.0,14.0,60,0.00,,,0.01,174,Wunderground v.1.15,2013-03-13 17:14:00,
2013-03-13 13:20:00,38.9,26.2,29.96,WSW,252,8.0,8.0,60,0.00,,,0.01,105,Wunderground v.1.15,2013-03-13 17:20:00,
2013-03-13 13:26:00,38.2,25.9,29.96,West,274,10.0,14.0,61,0.00,,,0.01,306,Wunderground v.1.15,2013-03-13 17:26:00,
2013-03-13 13:31:00,37.9,26.0,29.95,SW,221,10.0,16.0,62,0.00,,,0.01,223,Wunderground v.1.15,2013-03-13 17:31:00,
2013-03-13 13:37:00,37.3,25.5,29.96,SW,234,11.0,18.0,62,0.00,,,0.01,127,Wunderground v.1.15,2013-03-13 17:37:00,
2013-03-13 13:43:00,36.4,27.9,29.97,SW,235,13.0,15.0,71,0.00,,,0.01,151,Wunderground v.1.15,2013-03-13 17:43:00,
2013-03-13 13:48:00,35.4,30.8,29.97,WSW,252,12.0,15.0,83,0.00,,,0.01,279,Wunderground v.1.15,2013-03-13 17:48:00,
2013-03-13 13:54:00,35.0,31.2,29.96,WSW,237,7.0,11.0,86,0.00,,,0.01,380,Wunderground v.1.15,2013-03-13 17:54:00,
2013-03-13 14:00:00,36.1,32.0,29.96,SW,223,6.0,11.0,85,0.00,,,0.01,870,Wunderground v.1.15,2013-03-13 18:00:00,
2013-03-13 14:06:00,37.3,31.1,29.95,SSE,165,6.0,11.0,78,0.00,,,0.01,865,Wunderground v.1.15,2013-03-13 18:06:00,
2013-03-13 14:11:00,37.5,30.9,29.95,SW,234,7.0,12.0,77,0.00,,,0.01,95,Wunderground v.1.15,2013-03-13 18:11:00,
2013-03-13 14:17:00,36.2,30.6,29.97,WNW,296,10.0,25.0,80,0.00,,,0.01,63,Wunderground v.1.15,2013-03-13 18:17:00,
2013-03-13 14:22:00,34.2,29.6,29.97,WNW,287,13.0,14.0,83,0.00,,,0.01,211,Wunderground v.1.15,2013-03-13 18:22:00,
2013-03-13 14:27:00,33.2,28.6,29.96,SW,232,12.0,19.0,83,0.00,,,0.01,248,Wunderground v.1.15,2013-03-13 18:27:00,
2013-03-13 14:33:00,33.5,29.5,29.96,SSW,205,10.0,11.0,85,0.00,,,0.01,390,Wunderground v.1.15,2013-03-13 18:33:00,
2013-03-13 14:39:00,34.4,29.8,29.95,SSW,198,7.0,11.0,83,0.00,,,0.01,320,Wunderground v.1.15,2013-03-13 18:39:00,
2013-03-13 14:45:00,35.1,29.2,29.95,South,178,7.0,10.0,79,0.00,,,0.01,281,Wunderground v.1.15,2013-03-13 18:45:00,
2013-03-13 14:50:00,35.6,30.0,29.95,SSW,195,9.0,11.0,80,0.00,,,0.01,742,Wunderground v.1.15,2013-03-13 18:50:00,
2013-03-13 14:56:00,36.5,29.3,29.96,North,355,10.0,15.0,75,0.00,,,0.01,142,Wunderground v.1.15,2013-03-13 18:56:00,
2013-03-13 15:01:00,36.1,29.9,29.96,North,360,8.0,11.0,78,0.00,,,0.01,784,Wunderground v.1.15,2013-03-13 19:01:00,
2013-03-13 15:06:00,36.3,28.1,29.96,North,360,8.0,12.0,72,0.00,,,0.01,332,Wunderground v.1.15,2013-03-13 19:06:00,
2013-03-13 15:12:00,36.2,27.7,29.96,SW,227,8.0,11.0,71,0.00,,,0.01,325,Wunderground v.1.15,2013-03-13 19:12:00,
2013-03-13 15:18:00,36.6,28.8,29.96,West,263,7.0,15.0,73,0.00,,,0.01,116,Wunderground v.1.15,2013-03-13 19:18:00,
2013-03-13 15:23:00,36.3,28.1,29.97,WNW,300,7.0,9.0,72,0.00,,,0.01,42,Wunderground v.1.15,2013-03-13 19:23:00,
2013-03-13 15:29:00,34.1,28.9,29.98,NW,322,9.0,19.0,81,0.00,,,0.01,107,Wunderground v.1.15,2013-03-13 19:29:00,
2013-03-13 15:35:00,32.7,29.0,29.98,West,261,8.0,13.0,86,0.00,,,0.01,376,Wunderground v.1.15,2013-03-13 19:35:00,
2013-03-13 15:40:00,32.2,29.6,29.98,North,360,5.0,5.0,90,0.00,,,0.01,497,Wunderground v.1.15,2013-03-13 19:40:00,
2013-03-13 15:46:00,32.2,28.5,29.98,West,265,5.0,10.0,86,0.00,,,0.01,487,Wunderground v.1.15,2013-03-13 19:46:00,
2013-03-13 15:51:00,32.7,27.8,29.97,West,268,8.0,9.0,82,0.00,,,0.01,399,Wunderground v.1.15,2013-03-13 19:51:00,
2013-03-13 15:57:00,33.2,29.2,29.97,WSW,257,7.0,9.0,85,0.00,,,0.01,345,Wunderground v.1.15,2013-03-13 19:57:00,
2013-03-13 16:03:00,33.4,27.9,29.98,NW,308,6.0,8.0,80,0.00,,,0.01,144,Wunderground v.1.15,2013-03-13 20:03:00,
2013-03-13 16:08:00,33.4,28.8,29.98,SW,217,7.0,15.0,83,0.00,,,0.01,464,Wunderground v.1.15,2013-03-13 20:08:00,
2013-03-13 16:13:00,33.8,28.6,29.98,North,360,10.0,15.0,81,0.00,,,0.01,334,Wunderground v.1.15,2013-03-13 20:13:00,
2013-03-13 16:19:00,34.7,29.5,29.98,WSW,242,12.0,15.0,81,0.00,,,0.01,536,Wunderground v.1.15,2013-03-13 20:19:00,
2013-03-13 16:24:00,35.4,28.6,29.98,SW,219,10.0,12.0,76,0.00,,,0.01,592,Wunderground v.1.15,2013-03-13 20:24:00,
2013-03-13 16:30:00,36.2,28.0,29.98,WSW,257,7.0,10.0,72,0.00,,,0.01,446,Wunderground v.1.15,2013-03-13 20:30:00,
2013-03-13 16:35:00,36.4,27.9,29.98,West,263,8.0,16.0,71,0.00,,,0.01,541,Wunderground v.1.15,2013-03-13 20:35:00,
2013-03-13 16:41:00,36.6,27.7,29.98,WSW,240,10.0,10.0,70,0.00,,,0.01,482,Wunderground v.1.15,2013-03-13 20:41:00,
2013-03-13 16:46:00,36.3,27.1,29.98,North,360,9.0,13.0,69,0.00,,,0.01,105,Wunderground v.1.15,2013-03-13 20:46:00,
2013-03-13 16:52:00,35.3,26.1,29.99,WNW,285,9.0,22.0,69,0.00,,,0.01,69,Wunderground v.1.15,2013-03-13 20:52:00,
2013-03-13 16:58:00,33.1,26.7,30.00,WSW,250,14.0,22.0,77,0.00,,,0.01,265,Wunderground v.1.15,2013-03-13 20:58:00,
2013-03-13 17:04:00,32.5,25.8,30.00,North,360,11.0,14.0,76,0.00,,,0.01,234,Wunderground v.1.15,2013-03-13 21:04:00,
2013-03-13 17:09:00,32.3,24.6,30.00,SSW,207,7.0,14.0,73,0.00,,,0.01,130,Wunderground v.1.15,2013-03-13 21:09:00,
2013-03-13 17:15:00,32.4,24.7,30.00,SW,228,5.0,9.0,73,0.00,,,0.01,325,Wunderground v.1.15,2013-03-13 21:15:00,
2013-03-13 17:20:00,32.8,24.4,29.99,WSW,251,7.0,9.0,71,0.00,,,0.01,271,Wunderground v.1.15,2013-03-13 21:20:00,
2013-03-13 17:25:00,33.0,23.9,29.99,North,360,9.0,20.0,69,0.00,,,0.01,246,Wunderground v.1.15,2013-03-13 21:25:00,
2013-03-13 17:31:00,33.3,23.9,30.00,SW,234,9.0,10.0,68,0.00,,,0.01,114,Wunderground v.1.15,2013-03-13 21:31:00,
2013-03-13 17:37:00,33.3,23.2,30.00,West,263,10.0,23.0,66,0.00,,,0.01,93,Wunderground v.1.15,2013-03-13 21:37:00,
2013-03-13 17:43:00,32.4,24.0,30.01,North,360,13.0,22.0,71,0.00,,,0.01,67,Wunderground v.1.15,2013-03-13 21:43:00,
2013-03-13 17:49:00,31.7,23.7,30.01,WSW,254,11.0,25.0,72,0.00,,,0.01,167,Wunderground v.1.15,2013-03-13 21:49:00,
2013-03-13 17:55:00,32.0,24.0,30.01,SW,225,8.0,16.0,72,0.00,,,0.01,148,Wunderground v.1.15,2013-03-13 21:55:00,
2013-03-13 18:00:00,32.2,23.2,30.01,West,277,7.0,23.0,69,0.00,,,0.01,54,Wunderground v.1.15,2013-03-13 22:00:00,
2013-03-13 18:06:00,32.1,21.3,30.02,SW,232,8.0,23.0,64,0.00,,,0.01,114,Wunderground v.1.15,2013-03-13 22:06:00,
2013-03-13 18:11:00,32.1,21.3,30.02,WNW,290,8.0,8.0,64,0.00,,,0.01,77,Wunderground v.1.15,2013-03-13 22:11:00,
2013-03-13 18:17:00,32.1,21.7,30.02,North,360,6.0,17.0,65,0.00,,,0.01,62,Wunderground v.1.15,2013-03-13 22:17:00,
2013-03-13 18:23:00,31.9,20.7,30.03,North,360,9.0,9.0,63,0.00,,,0.01,98,Wunderground v.1.15,2013-03-13 22:23:00,
2013-03-13 18:28:00,31.6,22.2,30.04,NNW,340,8.0,10.0,68,0.00,,,0.01,58,Wunderground v.1.15,2013-03-13 22:28:00,
2013-03-13 18:34:00,30.9,23.6,30.03,WSW,255,6.0,12.0,74,0.00,,,0.01,47,Wunderground v.1.15,2013-03-13 22:34:00,
2013-03-13 18:40:00,30.4,22.8,30.04,SSW,198,6.0,7.0,73,0.00,,,0.01,35,Wunderground v.1.15,2013-03-13 22:40:00,
2013-03-13 18:47:00,30.0,23.0,30.04,South,175,5.0,13.0,75,0.00,,,0.01,26,Wunderground v.1.15,2013-03-13 22:47:00,
2013-03-13 18:52:00,29.8,22.5,30.04,South,172,7.0,8.0,74,0.00,,,0.01,53,Wunderground v.1.15,2013-03-13 22:52:00,
2013-03-13 18:58:00,29.7,22.1,30.04,West,270,7.0,11.0,73,0.00,,,0.01,16,Wunderground v.1.15,2013-03-13 22:58:00,
2013-03-13 19:04:00,29.7,20.8,30.05,WNW,297,7.0,12.0,69,0.00,,,0.01,14,Wunderground v.1.15,2013-03-13 23:04:00,
2013-03-13 19:10:00,29.7,20.8,30.05,WSW,256,8.0,8.0,69,0.00,,,0.01,11,Wunderground v.1.15,2013-03-13 23:10:00,
2013-03-13 19:15:00,29.7,20.8,30.05,WNW,284,5.0,11.0,69,0.00,,,0.01,9,Wunderground v.1.15,2013-03-13 23:15:00,
2013-03-13 19:21:00,29.6,19.3,30.05,North,360,5.0,5.0,65,0.00,,,0.01,5,Wunderground v.1.15,2013-03-13 23:21:00,
2013-03-13 19:27:00,29.4,19.4,30.06,West,268,6.0,13.0,66,0.00,,,0.01,0,Wunderground v.1.15,2013-03-13 23:27:00,
2013-03-13 19:32:00,29.2,19.6,30.06,WSW,257,10.0,12.0,67,0.00,,,0.01,0,Wunderground v.1.15,2013-03-13 23:32:00,
2013-03-13 19:37:00,29.0,19.8,30.06,WSW,257,10.0,22.0,68,0.00,,,0.01,0,Wunderground v.1.15,2013-03-13 23:37:00,
2013-03-13 19:43:00,28.9,19.3,30.06,SSW,208,6.0,8.0,67,0.00,,,0.01,0,Wunderground v.1.15,2013-03-13 23:43:00,
2013-03-13 19:49:00,28.8,20.2,30.06,South,189,4.0,8.0,70,0.00,,,0.01,0,Wunderground v.1.15,2013-03-13 23:49:00,
2013-03-13 19:55:00,28.8,21.2,30.08,WSW,256,5.0,12.0,73,0.00,,,0.01,0,Wunderground v.1.15,2013-03-13 23:55:00,
2013-03-13 20:00:00,28.2,23.1,30.08,NW,307,8.0,8.0,81,0.00,,,0.01,0,Wunderground v.1.15,2013-03-14 00:00:00,
2013-03-13 20:06:00,27.4,24.6,30.08,East,88,5.0,8.0,89,0.00,,,0.01,0,Wunderground v.1.15,2013-03-14 00:06:00,
2013-03-13 20:12:00,26.5,23.2,30.07,North,5,4.0,4.0,87,0.00,,,0.02,0,Wunderground v.1.15,2013-03-14 00:12:00,
2013-03-13 20:17:00,26.3,23.0,30.07,NW,311,4.0,17.0,87,0.00,,,0.02,0,Wunderground v.1.15,2013-03-14 00:17:00,
2013-03-13 20:23:00,26.5,22.3,30.07,South,190,6.0,11.0,84,0.00,,,0.02,0,Wunderground v.1.15,2013-03-14 00:23:00,
2013-03-13 20:29:00,26.5,22.0,30.08,NNW,327,5.0,11.0,83,0.00,,,0.02,0,Wunderground v.1.15,2013-03-14 00:29:00,
2013-03-13 20:35:00,26.7,21.1,30.07,SW,225,7.0,12.0,79,0.00,,,0.02,0,Wunderground v.1.15,2013-03-14 00:35:00,
2013-03-13 20:41:00,26.9,20.7,30.08,WNW,293,7.0,13.0,77,0.00,,,0.02,0,Wunderground v.1.15,2013-03-14 00:41:00,
2013-03-13 20:47:00,27.2,20.3,30.08,West,270,8.0,13.0,75,0.00,,,0.02,0,Wunderground v.1.15,2013-03-14 00:47:00,
2013-03-13 20:53:00,27.4,20.5,30.07,WSW,252,7.0,14.0,75,0.00,,,0.02,0,Wunderground v.1.15,2013-03-14 00:53:00,
2013-03-13 20:58:00,27.4,20.8,30.08,NNW,340,8.0,14.0,76,0.00,,,0.02,0,Wunderground v.1.15,2013-03-14 00:58:00,
2013-03-13 21:04:00,27.4,21.4,30.08,West,278,6.0,7.0,78,0.00,,,0.02,0,Wunderground v.1.15,2013-03-14 01:04:00,
2013-03-13 21:10:00,27.4,21.4,30.08,West,259,4.0,13.0,78,0.00,,,0.02,0,Wunderground v.1.15,2013-03-14 01:10:00,
2013-03-13 21:15:00,27.4,21.7,30.09,WNW,298,4.0,13.0,79,0.00,,,0.02,0,Wunderground v.1.15,2013-03-14 01:15:00,
2013-03-13 21:21:00,27.4,21.7,30.09,North,360,3.0,4.0,79,0.00,,,0.02,0,Wunderground v.1.15,2013-03-14 01:21:00,
2013-03-13 21:26:00,27.3,23.1,30.10,SW,219,3.0,6.0,84,0.00,,,0.02,0,Wunderground v.1.15,2013-03-14 01:26:00,
2013-03-13 21:31:00,26.7,23.9,30.09,North,360,5.0,9.0,89,0.00,,,0.02,0,Wunderground v.1.15,2013-03-14 01:31:00,
2013-03-13 21:37:00,26.1,23.3,30.08,NW,316,7.0,11.0,89,0.00,,,0.03,0,Wunderground v.1.15,2013-03-14 01:37:00,
2013-03-13 21:42:00,26.0,22.7,30.08,NW,318,7.0,12.0,87,0.00,,,0.03,0,Wunderground v.1.15,2013-03-14 01:42:00,
2013-03-13 21:48:00,26.1,22.8,30.09,NW,310,6.0,12.0,87,0.00,,,0.03,0,Wunderground v.1.15,2013-03-14 01:48:00,
2013-03-13 21:53:00,26.2,22.3,30.09,West,265,4.0,8.0,85,0.00,,,0.03,0,Wunderground v.1.15,2013-03-14 01:53:00,
2013-03-13 21:59:00,26.5,21.7,30.09,WNW,295,5.0,9.0,82,0.00,,,0.03,0,Wunderground v.1.15,2013-03-14 01:59:00,
2013-03-13 22:05:00,26.7,21.4,30.09,NW,304,7.0,19.0,80,0.00,,,0.03,0,Wunderground v.1.15,2013-03-14 02:05:00,
2013-03-13 22:10:00,26.7,20.8,30.09,SW,230,8.0,8.0,78,0.00,,,0.03,0,Wunderground v.1.15,2013-03-14 02:10:00,
2013-03-13 22:16:00,26.8,20.9,30.09,WNW,302,7.0,16.0,78,0.00,,,0.03,0,Wunderground v.1.15,2013-03-14 02:16:00,
2013-03-13 22:22:00,26.9,20.3,30.09,West,275,8.0,14.0,76,0.00,,,0.03,0,Wunderground v.1.15,2013-03-14 02:22:00,
2013-03-13 22:28:00,26.9,20.3,30.09,WSW,257,5.0,14.0,76,0.00,,,0.03,0,Wunderground v.1.15,2013-03-14 02:28:00,
2013-03-13 22:34:00,26.9,20.0,30.10,North,360,6.0,18.0,75,0.00,,,0.03,0,Wunderground v.1.15,2013-03-14 02:34:00,
2013-03-13 22:39:00,26.9,19.4,30.10,WNW,287,8.0,18.0,73,0.00,,,0.03,0,Wunderground v.1.15,2013-03-14 02:39:00,
2013-03-13 22:45:00,27.0,19.5,30.10,WNW,302,7.0,10.0,73,0.00,,,0.03,0,Wunderground v.1.15,2013-03-14 02:45:00,
2013-03-13 22:51:00,27.1,19.3,30.10,NW,311,7.0,12.0,72,0.00,,,0.03,0,Wunderground v.1.15,2013-03-14 02:51:00,
2013-03-13 22:57:00,27.0,19.8,30.10,West,273,7.0,12.0,74,0.00,,,0.03,0,Wunderground v.1.15,2013-03-14 02:57:00,
2013-03-13 23:02:00,27.0,18.8,30.10,WSW,257,7.0,9.0,71,0.00,,,0.03,0,Wunderground v.1.15,2013-03-14 03:02:00,
2013-03-13 23:07:00,26.9,19.4,30.10,WNW,303,5.0,11.0,73,0.00,,,0.03,0,Wunderground v.1.15,2013-03-14 03:07:00,
2013-03-13 23:13:00,26.9,18.7,30.10,WSW,250,7.0,15.0,71,0.00,,,0.03,0,Wunderground v.1.15,2013-03-14 03:13:00,
2013-03-13 23:19:00,26.8,18.7,30.10,NW,317,8.0,15.0,71,0.00,,,0.03,0,Wunderground v.1.15,2013-03-14 03:19:00,
2013-03-13 23:24:00,26.9,19.1,30.10,West,275,8.0,19.0,72,0.00,,,0.03,0,Wunderground v.1.15,2013-03-14 03:24:00,
2013-03-13 23:30:00,27.0,18.8,30.10,NW,321,8.0,17.0,71,0.00,,,0.03,0,Wunderground v.1.15,2013-03-14 03:30:00,
2013-03-13 23:35:00,27.0,18.5,30.10,NNW,338,9.0,17.0,70,0.00,,,0.03,0,Wunderground v.1.15,2013-03-14 03:35:00,
2013-03-13 23:41:00,27.1,18.6,30.10,WSW,248,8.0,11.0,70,0.00,,,0.03,0,Wunderground v.1.15,2013-03-14 03:41:00,
2013-03-13 23:46:00,27.1,18.6,30.10,WSW,239,6.0,11.0,70,0.00,,,0.03,0,Wunderground v.1.15,2013-03-14 03:46:00,
2013-03-13 23:52:00,27.0,18.8,30.10,NW,319,6.0,13.0,71,0.00,,,0.03,0,Wunderground v.1.15,2013-03-14 03:52:00,
2013-03-13 23:58:00,27.0,19.5,30.11,SSW,209,8.0,18.0,73,0.00,,,0.00,0,Wunderground v.1.15,2013-03-14 03:58:00,